Location: Bégole
(43.1574°N, 0.3291°E)
Time: 02:23:49
(UTC+00:00)

Meteor 1-11 - Pass Details

Date: 28 January 2023
Orbit: 839 x 888 km, 81.2° (Epoch: 27 March)

Event Time Altitude Azimuth Distance (km) Brightness Sun altitude
Rises 18:33:48 0° 172° (S) 3,476 7.4 -16.2°
Reaches altitude 10° 18:36:18 10° 167° (SSE) 2,543 6.6 -16.7°
Maximum altitude 18:41:51 49° 94° (E) 1,131 4.4 -17.7°
Drops below altitude 10° 18:47:26 10° 21° (NNE) 2,557 6.4 -18.7°
Sets 18:49:57 0° 16° (NNE) 3,496 7.2 -19.1°
